Wind_Speed
17 17 18 18 18 18 18 19 19 18 15 12 11 12 10 7 1 3 2 3 2 5 5 5 5 6 9 13 17 17 12 9 11 12 10 8 8 9 8 12 13 10 8 8 8 10 7 3 5 4 5 8 5 4 13 10 5 2 6 6 1 1 2 4 4 3 7 11 13 12 11 8 9 7 5 5 5 6 7 4 3 2 2 2 2 3 2
17 18 18 17 16 16 17 17 16 16 15 14 15 13 11 10 4 2 2 3 3 5 4 4 5 6 9 10 13 17 15 10 9 9 9 7 8 8 8 11 14 11 9 10 11 11 7 3 4 4 3 2 3 4 10 8 2 2 1 3 2 1 2 2 3 2 3 5 7 8 7 8 5 6 7 9 8 5 4 4 3 2 4 5 2 2 3
18 18 17 16 15 15 15 15 13 13 13 13 14 13 13 12 6 2 1 4 4 4 3 5 6 6 9 9 9 12 12 10 11 11 10 9 8 7 8 11 14 10 9 12 13 11 8 7 3 3 1 0 3 4 3 6 6 3 2 2 2 1 1 1 4 5 4 3 2 3 2 6 7 9 11 12 12 6 3 2 4 4 3 3 1 2 5
17 18 17 15 15 14 15 14 11 10 10 10 12 11 10 9 4 2 3 5 5 5 6 9 8 6 7 8 7 9 8 6 8 10 9 8 8 7 7 11 12 9 9 11 12 11 10 10 7 2 5 3 4 7 7 7 7 2 4 2 2 1 0 1 3 2 2 2 1 3 4 6 8 12 16 15 11 8 5 4 4 3 1 1 2 6 8
17 17 16 15 14 14 15 14 10 7 6 8 11 11 10 7 4 5 5 4 5 6 9 10 8 5 6 6 6 10 11 5 4 9 8 5 6 7 7 10 9 7 8 8 9 11 11 12 12 6 4 5 1 6 9 12 13 9 4 5 2 1 3 3 2 2 4 6 5 4 4 6 10 13 14 16 15 11 6 6 5 3 2 1 5 11 11
16 17 15 14 14 15 15 14 10 7 5 6 10 11 8 4 4 7 4 3 4 6 8 10 7 8 8 4 5 11 12 4 1 6 7 3 3 5 6 9 10 10 10 8 8 9 10 10 7 3 4 4 2 4 7 9 11 11 9 9 5 4 5 4 4 6 6 5 6 5 3 1 6 10 10 12 15 15 12 8 5 2 2 3 8 13 12
15 16 15 14 15 15 16 14 11 8 7 7 7 8 7 6 4 5 4 3 4 5 8 10 7 9 9 4 5 10 10 6 4 3 5 6 6 4 4 8 10 10 9 6 4 4 5 5 7 9 6 2 2 1 2 2 4 8 8 6 3 4 4 5 6 7 8 7 6 6 7 7 7 5 6 8 10 11 10 11 11 5 10 11 12 15 13
15 15 14 14 15 15 16 16 12 8 7 9 8 7 10 9 6 6 6 4 5 5 6 8 6 7 8 6 6 9 9 9 9 7 7 5 6 7 7 8 9 9 9 8 7 7 7 6 7 7 6 3 1 1 2 2 5 8 6 1 3 3 2 3 5 5 6 7 6 6 7 8 9 9 9 6 6 7 5 6 8 6 10 13 11 12 10
14 14 13 13 14 15 17 16 14 9 7 10 11 9 10 8 5 6 8 5 5 4 4 6 5 5 6 6 7 8 9 12 11 6 7 8 8 10 11 10 8 9 9 10 10 10 10 8 8 8 7 5 3 1 3 5 3 4 1 4 5 4 0 1 4 4 4 5 6 5 5 5 8 9 10 10 6 3 5 6 4 2 6 11 10 6 5
13 13 13 12 13 15 16 16 16 13 9 11 12 11 11 10 7 7 9 4 5 5 4 6 5 4 4 4 7 8 9 11 10 6 6 10 11 12 13 11 6 5 8 11 12 13 12 11 10 9 9 9 7 4 5 5 1 3 3 4 3 5 2 1 3 4 4 5 7 6 4 4 6 4 5 9 7 5 4 5 7 4 5 6 5 6 8
13 13 12 12 12 14 16 16 17 15 13 15 14 12 12 12 10 12 12 5 4 5 4 5 6 5 3 0 4 7 8 9 10 7 6 8 11 12 12 12 7 4 8 13 14 13 12 11 10 9 9 10 10 6 7 9 3 5 7 5 1 5 4 1 2 3 2 3 3 5 6 3 2 3 7 7 3 8 6 5 7 6 5 4 5 9 11
12 12 12 11 11 13 15 15 15 15 14 16 14 10 10 11 11 13 11 4 4 5 4 5 5 7 7 2 2 4 4 6 8 7 6 7 10 11 11 11 8 6 11 16 16 14 13 11 10 9 9 9 10 7 6 5 4 3 8 9 5 4 2 1 2 1 1 5 5 3 5 2 2 4 8 8 3 4 5 6 7 7 10 10 10 11 12
11 12 11 10 10 12 14 14 14 14 14 15 15 11 10 11 10 11 10 6 4 6 6 6 8 9 9 8 6 1 4 3 6 7 6 6 8 11 11 10 9 11 15 18 17 14 10 7 6 6 6 7 7 6 4 2 3 2 3 8 7 3 1 2 1 1 2 1 1 1 1 2 3 6 9 9 6 2 4 6 5 6 8 9 10 11 11
10 11 11 10 9 11 13 13 13 14 14 15 16 12 10 10 11 11 11 7 4 7 10 7 7 10 8 9 11 5 4 3 2 4 6 6 8 10 10 10 12 13 15 16 14 10 5 3 3 3 2 3 4 4 3 3 4 4 2 2 5 5 2 1 2 1 1 2 2 1 1 2 3 6 8 7 5 3 2 2 3 3 5 7 10 12 13
9 10 10 9 9 10 12 13 12 12 13 14 14 11 8 9 11 11 12 10 3 7 10 8 6 12 10 8 10 8 3 0 1 2 3 4 6 6 7 10 13 12 12 11 9 6 3 3 4 2 1 3 2 3 5 6 5 6 6 4 3 3 3 3 3 3 3 3 2 1 1 0 2 6 9 9 8 8 6 1 3 4 4 9 12 13 13
8 9 9 9 9 9 10 12 12 11 11 13 14 11 7 9 10 10 11 10 5 5 9 11 8 10 9 9 9 9 6 5 4 1 1 2 5 6 6 9 10 10 11 10 7 4 3 3 3 2 1 2 2 2 4 3 4 9 10 7 7 4 3 4 4 3 3 3 2 1 0 1 2 4 7 11 12 10 7 1 3 3 3 12 15 13 13
8 8 8 9 9 9 9 10 11 11 12 13 15 12 7 7 10 12 10 8 8 8 10 13 11 8 8 7 8 8 7 7 7 5 3 4 7 7 8 9 7 5 6 7 5 4 3 2 3 3 1 3 3 2 3 2 2 6 12 9 5 3 1 3 5 4 3 3 2 1 3 3 5 6 5 8 11 10 5 2 2 1 6 14 15 14 14
7 7 7 8 8 8 9 10 10 11 12 13 14 11 6 5 9 13 10 6 7 8 11 13 12 10 9 8 8 9 9 9 9 7 5 6 8 9 10 9 5 2 4 3 3 4 4 2 1 2 1 2 4 2 1 3 3 3 6 6 3 2 2 2 3 3 3 3 1 2 3 2 7 9 6 7 8 5 1 2 1 4 11 15 14 14 15
6 6 6 7 8 8 8 9 9 9 10 11 13 12 8 5 8 14 14 9 7 8 11 12 12 11 11 10 11 11 10 10 11 8 4 5 11 14 10 5 6 5 4 5 2 2 4 1 2 2 2 1 2 2 2 1 3 3 5 4 3 5 4 3 4 4 3 3 1 3 4 2 8 10 8 8 6 1 5 6 7 9 13 15 17 20 21
5 5 5 5 6 7 7 8 8 8 9 11 12 12 9 6 6 13 15 10 5 8 11 12 12 12 12 12 13 13 12 11 12 10 5 6 15 17 7 1 6 8 7 7 4 2 4 3 2 3 2 1 2 1 1 1 2 5 6 6 5 5 4 3 4 4 3 2 2 2 3 4 10 9 6 8 5 5 8 11 16 17 14 16 21 21 18
3 4 5 5 5 6 7 7 7 7 9 10 10 10 8 6 6 12 14 12 7 7 8 9 11 12 12 12 12 13 12 11 11 11 10 11 14 11 4 5 8 7 5 6 5 2 3 5 4 2 2 2 2 2 2 1 4 7 6 5 4 5 5 3 4 4 3 2 4 2 3 6 10 7 5 7 10 11 12 13 15 16 15 17 20 18 15
2 2 3 4 4 5 5 6 6 6 6 7 8 9 8 7 5 10 12 11 8 7 4 4 7 10 11 11 11 11 11 11 11 11 12 14 11 8 8 9 9 8 7 7 6 4 4 5 4 3 3 4 4 4 4 2 1 5 7 4 4 7 5 3 5 5 5 5 5 5 6 8 11 11 9 8 12 16 17 17 17 14 13 15 16 16 16
1 1 2 2 3 3 4 4 5 5 4 4 5 7 8 7 6 7 8 6 2 3 2 1 3 7 9 10 10 9 10 11 11 12 12 13 9 8 10 11 9 8 9 9 7 7 6 5 5 4 4 4 5 5 3 1 1 5 4 3 5 6 4 2 4 6 8 8 8 8 9 10 12 13 12 11 12 14 16 18 18 17 16 16 15 15 15
3 3 2 2 2 2 2 2 3 3 3 4 4 6 8 8 7 8 9 5 2 1 2 4 5 6 7 8 9 9 9 10 11 11 12 13 10 7 8 10 11 9 9 10 9 8 6 4 4 3 3 4 5 4 3 3 5 5 4 1 6 6 4 3 4 4 2 5 7 8 8 9 9 10 11 12 13 14 15 15 16 16 16 15 13 12 13
5 4 4 4 3 2 1 1 1 1 2 3 3 6 9 7 5 6 8 6 5 6 1 5 6 4 3 5 8 9 9 9 9 10 11 11 11 9 7 8 8 8 8 9 10 10 6 4 4 2 4 6 7 4 4 4 3 3 4 4 5 4 6 3 4 3 2 5 9 8 9 9 8 9 10 10 11 11 12 13 14 13 13 12 10 10 9
6 5 5 5 4 4 3 2 1 1 1 1 1 5 8 7 4 5 7 8 8 8 5 4 6 3 3 5 6 7 8 8 8 9 10 10 9 9 8 7 5 5 6 6 6 8 7 3 4 4 5 6 8 5 3 3 3 1 5 5 2 4 6 4 5 6 5 7 9 9 9 8 8 10 10 9 8 9 10 11 11 11 11 10 9 8 8
6 6 6 6 5 5 4 2 2 2 0 1 1 4 7 8 7 4 4 7 6 5 4 4 7 4 4 5 5 6 8 9 8 8 9 9 9 8 9 9 7 6 6 5 3 5 6 3 4 5 5 6 7 4 2 4 5 1 4 7 5 3 4 5 3 3 4 6 8 6 5 6 8 10 10 9 9 9 9 9 10 9 8 8 7 7 7
7 6 6 6 5 5 4 3 2 2 1 1 0 3 5 6 8 6 4 3 4 7 8 4 5 3 2 4 5 5 7 8 8 8 7 9 9 8 8 10 9 8 8 7 3 3 5 5 5 5 5 5 5 2 1 0 2 0 4 8 9 7 6 6 4 3 5 7 6 3 4 8 10 9 9 9 7 6 7 8 7 6 5 4 3 3 4
7 6 5 5 5 4 4 3 2 2 2 2 3 3 1 1 4 8 6 4 3 7 10 6 1 2 2 4 5 6 6 7 7 7 7 7 8 9 8 8 9 9 8 7 6 4 5 6 6 5 4 5 5 3 2 2 1 3 5 8 9 7 5 5 5 5 7 8 5 3 7 11 10 8 8 7 5 5 5 5 3 4 4 3 2 2 2
5 5 4 4 5 3 2 3 2 3 3 3 3 3 3 5 2 5 6 4 3 4 9 7 1 3 4 4 4 4 5 5 5 6 6 5 5 8 8 7 8 8 6 4 6 6 4 5 5 4 4 4 5 4 4 3 1 5 8 8 7 5 4 5 6 6 7 7 6 7 10 10 8 7 7 5 3 4 5 4 4 5 5 4 3 3 3
4 4 3 3 3 2 3 3 4 6 6 5 6 6 3 2 0 4 5 4 3 2 8 9 3 3 4 3 2 3 4 4 3 2 4 6 5 5 7 7 8 9 8 6 5 5 5 4 3 3 5 5 4 3 4 5 2 6 9 8 6 5 5 6 6 8 8 6 5 7 9 7 5 5 6 4 3 3 4 4 3 1 3 2 2 2 2
3 4 3 2 1 1 3 4 6 7 4 2 3 4 3 4 5 6 5 2 3 2 7 8 4 1 2 4 3 1 4 6 5 4 1 7 7 3 3 5 6 7 7 6 3 2 4 4 3 2 4 4 2 3 4 4 3 6 7 6 5 5 4 3 3 5 6 5 3 4 5 5 5 5 6 5 3 3 3 2 2 2 3 3 2 1 2
3 3 2 2 1 3 4 4 5 5 3 2 1 3 5 6 6 6 3 2 2 3 6 6 3 1 2 4 4 1 3 6 4 2 1 6 7 5 3 3 3 1 3 5 4 2 1 2 2 0 2 2 1 3 4 3 4 5 3 3 5 4 3 3 2 2 3 3 2 1 2 3 5 4 4 2 1 1 1 1 1 3 3 2 0 1 0
3 3 2 2 3 5 6 7 7 7 5 4 1 2 5 6 5 4 2 2 0 3 4 5 5 1 3 4 4 2 2 5 4 2 3 5 5 6 5 2 2 2 1 4 5 4 4 1 2 1 3 2 1 3 4 2 2 2 1 3 4 3 2 1 1 2 3 3 2 2 2 2 2 1 2 1 2 2 1 2 2 1 0 2 3 3 3
3 4 5 6 7 8 9 9 8 5 3 1 0 3 7 6 3 2 3 2 2 3 3 3 5 3 1 1 3 3 3 5 4 4 4 4 3 5 7 5 2 1 2 4 6 5 1 3 6 3 2 3 1 2 2 2 1 1 1 2 3 4 4 3 3 3 3 3 2 2 1 1 1 2 2 2 3 3 3 4 3 1 1 4 5 3 2
5 8 10 11 12 10 8 6 3 1 1 1 2 5 5 2 2 1 2 1 3 4 3 2 2 2 3 2 4 3 3 4 3 4 4 3 3 4 6 6 3 3 4 4 5 2 4 5 5 5 1 1 3 1 2 4 3 1 1 2 2 3 5 5 5 4 4 3 2 1 1 2 3 3 2 2 4 4 4 5 5 3 3 5 7 5 4
9 11 12 12 10 6 4 3 1 2 2 1 1 1 3 6 6 4 2 1 3 4 6 6 3 3 3 1 4 3 3 2 2 3 2 3 5 4 5 5 3 3 3 4 2 1 4 3 3 5 3 3 4 3 2 3 3 2 3 4 2 3 4 5 5 5 5 5 4 4 4 4 4 3 3 3 4 5 4 4 6 6 5 5 5 5 5
11 10 9 6 3 2 2 2 2 5 2 3 3 2 1 1 2 4 4 1 2 3 4 5 3 3 3 1 3 4 4 3 3 3 3 4 4 3 3 3 2 2 4 3 2 3 3 2 2 4 4 4 4 2 0 1 3 4 5 5 5 5 5 4 5 6 7 7 7 5 4 5 4 4 4 5 5 5 5 4 6 6 6 5 5 5 5
8 6 2 1 0 3 3 1 1 1 4 4 2 1 2 3 3 2 3 1 2 3 1 2 4 5 5 2 3 4 4 4 4 4 3 2 1 2 3 3 2 2 5 3 3 2 4 4 2 4 3 2 3 3 4 2 3 5 6 6 7 6 6 6 5 6 7 8 5 3 4 5 5 5 5 5 6 6 5 5 6 6 5 5 5 4 4
2 1 2 1 4 6 4 1 4 5 4 2 2 2 2 2 1 1 2 3 2 1 2 2 3 4 4 3 1 3 4 4 3 3 3 1 1 3 4 3 3 3 5 3 3 1 4 4 3 4 3 4 8 6 3 3 5 6 6 6 7 7 7 8 7 6 7 7 5 4 4 4 5 6 6 6 7 6 5 6 7 6 5 5 5 4 5
2 2 1 4 5 4 3 5 5 2 1 1 0 1 1 1 1 1 3 3 2 2 2 2 2 2 2 4 4 2 4 5 4 4 4 2 3 3 5 4 3 3 4 2 3 2 4 4 3 4 4 4 7 6 3 5 6 6 6 6 7 8 8 9 8 7 7 7 6 6 5 4 5 6 6 5 6 6 6 7 7 6 5 4 5 5 5
5 4 5 6 5 3 3 4 3 1 2 1 0 1 1 1 1 1 1 1 2 2 2 1 2 2 2 4 6 3 4 5 5 4 4 1 3 2 4 3 2 3 4 4 4 4 4 3 4 4 3 6 6 4 4 5 7 7 7 6 6 7 9 9 9 8 7 7 7 6 5 4 5 5 4 3 4 4 5 7 7 6 5 5 6 5 4
8 7 6 5 4 2 2 2 2 0 1 0 0 0 1 2 2 1 1 2 2 1 2 1 2 2 1 2 4 3 1 3 4 4 3 2 1 2 3 3 2 4 4 5 5 5 3 3 5 3 5 7 4 4 5 6 7 9 9 7 5 5 7 7 7 6 6 6 6 5 4 5 5 4 3 4 4 4 5 6 7 8 6 6 6 6 4
8 5 3 2 1 1 1 1 1 1 1 2 2 1 1 2 2 2 2 3 2 1 0 1 3 2 0 1 3 2 0 1 2 3 3 3 2 2 2 2 3 4 5 4 4 4 3 3 4 4 5 5 2 3 4 5 7 9 10 8 5 4 5 6 6 6 6 6 5 4 5 4 3 3 3 4 4 5 5 5 7 8 8 6 6 7 6
2 1 1 1 0 1 0 1 2 2 2 2 2 1 1 1 2 3 2 2 2 1 1 2 4 5 3 1 2 2 1 0 1 1 1 3 3 2 3 3 3 4 5 4 4 4 5 3 3 5 6 5 4 4 5 6 7 8 9 9 8 6 6 6 6 6 6 6 5 5 5 4 3 3 3 3 3 4 5 6 7 7 7 7 7 8 6
1 3 2 1 1 2 2 2 2 2 3 2 0 3 3 3 3 4 2 1 1 2 2 2 4 5 5 3 1 1 1 2 2 1 1 2 3 2 3 4 4 3 4 4 4 5 4 3 6 5 3 3 4 5 6 7 7 7 8 9 9 8 7 7 7 7 7 6 6 5 5 5 5 4 4 4 4 4 5 6 6 6 7 7 7 7 6
2 3 3 2 1 2 4 4 2 1 1 1 3 5 4 4 4 5 3 2 2 3 3 3 4 4 4 3 3 3 3 2 2 2 1 2 3 2 2 3 3 3 3 4 5 5 3 5 7 6 5 5 6 7 7 7 7 7 7 8 8 9 7 6 8 9 8 8 8 7 6 5 5 5 4 4 5 5 5 6 7 7 7 7 7 6 6
3 3 2 2 2 3 4 4 2 2 3 3 3 3 3 2 3 4 3 2 3 3 3 4 5 4 3 1 2 3 3 2 2 3 2 2 2 2 2 2 3 3 4 5 5 4 4 6 6 6 7 7 6 6 6 6 7 8 8 7 8 9 8 7 8 9 9 9 9 9 9 8 7 7 7 6 6 6 7 7 8 8 8 8 8 7 7
5 4 3 3 4 4 4 2 1 2 3 2 2 2 2 1 2 4 4 2 3 4 4 4 5 4 3 1 2 3 3 1 1 2 1 1 2 2 2 3 4 4 3 3 4 6 7 6 5 6 7 6 6 6 6 6 7 8 8 9 10 9 8 8 9 10 10 10 9 9 9 10 9 8 8 8 8 7 7 8 8 9 9 9 9 8 8
5 5 5 5 5 4 3 2 1 2 4 4 2 1 2 1 3 5 3 2 4 4 4 3 2 2 3 3 2 2 2 1 2 3 3 3 3 3 3 4 5 4 4 4 6 7 9 9 8 6 6 5 6 7 7 8 10 11 11 12 13 12 10 8 8 9 10 10 9 10 11 12 10 7 7 8 7 6 5 6 7 8 9 10 9 9 9
4 5 7 7 6 4 2 2 2 1 2 3 2 2 1 1 1 3 2 3 4 3 3 3 2 2 2 2 2 2 2 3 3 4 4 3 3 3 4 4 4 5 7 8 8 8 9 9 8 6 6 6 7 8 9 11 12 11 10 12 14 14 12 11 9 8 8 7 8 9 11 12 10 8 8 10 8 7 7 8 7 7 9 10 10 9 9
5 5 5 6 6 5 3 3 2 3 1 1 2 2 1 2 1 2 1 3 4 4 4 3 3 3 3 2 1 2 3 3 3 4 4 4 4 4 4 5 6 8 10 11 10 10 9 8 7 7 7 8 10 11 12 12 12 11 10 11 12 12 11 10 9 8 8 8 8 8 9 9 9 10 10 10 9 9 10 10 8 7 7 9 9 10 10
Wind_Direction
340 343 342 339 337 336 336 338 337 335 333 338 341 328 303 284 271 115 72 3 257 242 270 284 266 265 273 276 279 280 275 269 274 276 281 292 289 280 274 269 263 257 272 286 276 278 285 234 211 187 204 220 187 9 329 297 197 87 329 304 323 160 177 201 229 292 300 295 303 298 291 279 250 245 259 254 245 238 236 249 256 235 270 269 150 129 119
344 346 344 340 338 339 338 340 341 337 334 335 337 331 313 307 318 147 114 22 305 271 299 303 289 292 286 284 294 298 298 295 290 286 282 275 267 266 265 270 270 257 251 262 260 264 280 257 202 189 233 231 128 40 353 337 308 108 183 276 350 329 254 225 221 233 248 277 291 279 311 355 329 292 285 257 245 252 248 241 251 260 259 255 248 108 125
346 348 346 343 342 343 341 342 343 339 334 327 327 327 313 303 295 225 132 29 330 298 330 317 303 308 308 308 306 300 293 282 276 279 284 288 285 274 275 286 290 286 272 262 256 258 268 265 233 146 149 54 194 215 50 24 330 333 121 137 81 326 307 331 257 239 205 221 257 236 334 3 334 326 324 285 255 259 296 269 245 252 263 284 344 123 134
349 349 349 348 347 345 344 345 345 341 333 324 327 326 305 294 305 331 354 14 346 326 1 346 326 332 333 317 291 281 279 278 287 288 276 274 285 286 282 291 297 299 292 279 266 259 253 257 263 204 149 134 231 225 164 166 231 259 62 73 120 160 215 44 297 285 138 174 162 82 28 359 347 352 354 335 300 273 266 260 253 251 267 8 97 137 136
351 352 353 353 351 349 349 349 352 351 343 342 338 319 292 288 353 13 350 354 351 348 6 360 346 357 346 320 314 306 290 277 320 312 294 264 276 282 273 278 282 285 289 282 273 273 263 254 254 241 154 113 198 235 203 201 206 181 183 242 232 243 224 194 272 246 154 157 143 86 30 1 354 354 357 353 347 336 299 253 237 238 247 244 153 143 134
353 355 357 359 355 353 354 355 3 18 32 11 333 311 300 307 26 41 15 338 356 357 360 359 1 15 5 335 345 335 318 321 13 307 309 322 294 283 282 282 270 262 271 268 261 274 272 265 276 340 56 98 132 252 236 206 185 179 210 233 223 250 245 196 212 240 217 180 161 151 156 283 331 339 346 1 12 7 346 323 307 268 147 135 141 131 119
356 359 2 4 -0 359 0 2 16 39 49 27 336 324 357 11 23 32 352 333 31 26 4 3 12 19 9 358 9 352 339 355 16 2 13 2 340 340 316 295 285 283 301 318 317 311 303 308 346 12 18 60 110 317 274 192 198 215 227 233 222 253 254 208 207 236 236 217 194 189 202 217 230 264 311 352 26 26 13 1 356 40 113 120 125 114 103
-0 3 6 8 5 7 8 8 19 38 47 39 25 18 21 13 10 359 320 325 42 41 20 16 19 23 11 4 12 357 347 1 3 18 44 21 349 -0 345 324 326 331 349 23 32 11 2 358 350 347 355 19 62 65 146 178 279 256 228 273 308 276 247 219 222 233 234 220 207 211 217 217 214 222 247 284 350 15 46 43 -0 14 100 104 102 100 100
3 6 10 11 11 15 14 15 22 28 39 40 33 30 17 1 1 342 314 326 13 6 35 31 15 37 26 2 5 352 350 7 -0 349 23 25 12 4 354 352 349 338 356 24 20 357 345 341 334 329 336 334 299 268 186 189 246 271 279 27 335 280 221 170 230 233 230 214 206 212 213 220 227 227 237 246 257 354 48 81 55 27 109 102 94 97 111
5 8 12 14 18 21 18 20 26 29 47 52 36 23 9 -0 357 329 306 316 9 355 26 29 10 39 40 3 14 359 342 0 2 337 354 9 6 359 355 -0 1 352 9 9 351 335 326 318 313 309 305 296 287 284 265 256 199 102 83 55 2 292 287 200 219 229 235 225 213 212 214 232 234 239 283 265 218 154 94 84 92 118 152 136 125 136 135
7 10 14 17 22 24 23 27 31 34 52 57 40 16 5 2 348 322 302 297 29 25 36 35 13 10 7 76 55 22 345 349 3 355 342 348 352 353 355 359 4 19 8 349 330 319 310 297 289 286 281 278 275 261 260 275 265 138 134 122 170 270 272 281 256 235 253 317 293 220 207 224 262 329 344 333 180 162 158 111 91 98 118 109 103 122 133
9 11 15 21 23 26 28 32 38 45 55 57 44 16 2 359 336 321 317 329 31 27 33 60 37 4 5 36 87 61 27 358 357 358 343 333 341 349 353 356 359 356 343 334 325 315 301 279 261 255 249 249 256 249 237 261 272 164 144 137 151 235 248 48 331 268 32 5 345 223 202 228 323 338 356 11 47 171 162 121 101 105 112 110 111 126 141
11 13 16 22 25 28 33 36 45 55 56 55 48 23 3 1 348 342 348 358 30 9 355 49 49 10 9 12 347 35 111 29 351 356 348 336 345 353 353 348 344 340 334 329 322 315 302 272 248 240 236 232 237 244 238 247 297 297 148 139 141 166 193 100 69 27 43 8 280 192 261 344 25 20 7 10 20 62 118 120 122 132 134 130 127 128 129
13 16 18 24 27 30 35 38 50 59 55 51 46 28 11 16 13 3 348 339 50 32 -0 22 30 349 353 12 353 348 139 168 290 330 336 342 352 353 350 345 338 333 331 328 320 311 304 295 278 250 245 253 236 250 294 326 321 315 311 168 153 142 122 113 125 120 220 219 173 110 10 349 28 29 18 17 20 18 25 132 140 130 131 130 117 102 93
17 19 20 27 31 33 36 38 47 59 60 57 50 33 28 37 25 0 339 330 31 53 18 20 -0 326 336 19 7 354 8 335 259 252 286 344 -0 353 352 352 343 334 331 329 320 313 331 335 306 280 339 345 323 321 341 352 334 313 301 275 230 169 160 194 191 182 211 218 197 176 184 180 20 18 9 1 4 0 350 76 113 35 63 113 111 100 96
20 22 24 29 34 36 38 40 45 54 61 64 57 41 38 53 37 7 353 359 33 54 20 12 351 326 343 19 14 1 358 350 350 321 235 55 36 15 5 1 354 347 340 334 328 325 331 328 310 297 329 36 57 338 316 334 342 327 317 287 248 225 189 203 216 205 201 207 217 260 114 76 31 26 355 341 350 351 331 197 140 356 73 117 115 110 113
23 24 25 29 36 38 40 42 43 50 56 59 55 42 31 48 34 6 358 29 60 58 26 12 4 355 7 17 5 1 358 343 339 333 327 34 45 24 5 3 355 335 329 332 330 311 285 289 318 320 31 57 33 322 303 336 10 336 327 312 261 236 219 236 246 240 229 230 232 89 90 59 15 7 345 337 342 331 301 195 158 211 123 121 124 130 132
27 29 28 30 35 37 41 45 43 48 56 56 54 44 24 35 34 14 7 43 68 51 30 24 24 21 18 13 2 3 3 346 337 331 332 12 28 5 348 355 357 274 256 284 285 278 280 260 290 322 32 38 341 314 44 7 347 325 330 330 323 341 348 290 268 267 264 257 224 103 96 44 342 336 337 333 322 305 256 124 162 137 121 120 120 115 107
33 35 32 32 36 35 38 46 44 47 57 58 58 49 20 11 45 37 30 44 70 58 35 29 36 35 26 23 18 14 14 3 351 349 351 12 0 336 314 334 12 359 330 321 303 296 315 303 142 329 337 87 -0 2 105 -0 328 345 341 336 358 3 358 352 344 332 308 283 228 109 98 9 318 318 336 344 326 166 91 50 47 82 108 116 100 86 84
37 42 39 34 37 35 34 40 42 50 60 60 58 46 12 355 57 52 30 15 45 72 51 36 41 43 37 35 29 20 20 16 4 1 2 355 346 334 311 81 17 1 358 353 354 13 343 354 56 359 330 92 64 335 240 198 90 50 1 347 21 18 351 13 27 355 325 347 29 85 95 20 339 329 345 -0 13 105 91 59 56 64 80 95 87 80 88
35 41 45 39 37 35 35 35 37 55 71 68 61 47 17 6 72 68 39 16 30 73 59 40 47 49 44 43 35 26 29 26 13 4 353 340 340 344 11 46 13 3 10 350 340 13 7 356 7 347 327 45 35 323 330 12 85 68 25 356 30 21 349 17 49 3 326 29 56 57 79 43 24 31 52 32 41 69 78 73 72 70 75 80 72 67 80
21 26 37 40 40 34 34 36 34 46 72 75 62 52 31 12 43 67 50 32 45 74 64 44 61 57 49 46 41 36 37 30 18 10 354 340 345 14 34 26 14 15 14 354 341 1 13 5 358 346 359 22 3 344 348 326 96 61 45 24 27 33 30 45 59 47 42 68 95 97 85 72 65 71 77 64 60 67 70 71 70 71 81 82 70 63 69
289 327 358 21 35 32 29 35 33 34 51 62 61 57 38 5 4 38 35 13 29 88 74 57 66 52 43 40 37 34 35 29 23 21 6 348 354 41 46 22 -0 357 10 14 5 352 358 9 2 353 13 19 349 329 326 313 34 37 45 75 61 47 40 46 88 93 79 73 90 98 85 79 81 79 72 69 73 74 73 72 67 67 78 82 77 73 70
262 278 305 322 346 14 19 24 24 28 39 43 55 58 36 357 339 4 12 356 325 13 79 83 52 29 25 27 27 27 26 25 26 23 16 10 13 38 44 18 359 358 13 13 353 331 332 339 319 319 40 21 342 331 356 25 39 17 338 68 79 50 6 28 103 134 122 86 98 108 101 95 94 87 77 75 78 76 77 83 82 80 82 84 84 83 77
265 268 279 288 304 316 321 -0 10 9 40 45 57 52 30 354 333 6 4 345 317 304 304 90 61 19 6 17 21 24 20 18 23 24 26 30 29 25 20 6 359 -0 357 351 343 331 326 325 312 326 60 23 346 354 26 16 35 40 4 27 62 12 326 351 89 84 72 106 116 119 117 113 108 104 100 94 90 85 84 90 94 93 93 95 98 100 99
271 272 273 276 289 297 294 300 308 304 33 28 61 57 30 349 337 22 2 341 321 289 262 97 72 45 36 25 15 19 18 16 23 26 27 32 34 28 17 1 354 351 335 333 344 336 329 352 7 5 42 21 347 345 28 354 319 80 61 38 8 301 315 353 77 89 89 112 124 126 124 118 107 104 108 108 106 102 99 100 104 106 106 107 107 107 111
281 277 273 273 277 282 286 289 274 261 231 271 223 86 49 355 336 351 350 353 351 297 274 80 84 84 56 36 18 18 21 18 19 24 28 30 30 29 23 14 15 18 358 340 327 325 328 9 38 19 26 12 340 327 45 7 330 349 68 40 16 355 358 9 54 121 123 129 138 134 120 118 117 114 114 117 119 118 115 111 109 107 105 106 113 119 120
293 289 281 277 272 268 272 272 251 237 225 204 134 89 67 15 351 343 318 327 354 327 320 7 83 111 67 34 21 19 28 26 17 15 21 24 21 23 28 23 21 22 11 356 346 6 16 24 24 19 20 6 346 338 128 305 291 235 72 52 43 37 27 22 29 63 92 115 131 116 99 123 131 125 119 119 118 121 123 118 109 107 106 98 98 114 121
300 299 292 282 269 258 261 256 218 206 207 132 79 52 92 159 342 342 323 279 305 330 319 308 167 137 86 49 30 18 26 28 19 15 18 21 25 27 24 20 19 14 6 -0 1 18 48 47 29 20 16 354 336 321 300 270 159 104 73 68 69 63 50 44 50 72 98 110 105 72 105 126 129 120 116 115 97 91 113 125 119 111 111 106 88 90 99
309 309 308 293 274 247 231 227 181 153 142 106 46 329 240 201 236 342 338 279 256 326 317 301 294 88 71 53 25 358 5 10 10 22 18 3 18 27 16 8 11 1 347 8 23 12 25 51 45 46 45 6 331 314 318 321 95 98 78 67 70 77 69 62 71 92 103 104 93 91 110 126 131 129 125 111 70 65 86 106 116 97 85 89 99 99 98
328 324 325 315 288 227 194 181 157 140 115 65 4 317 281 191 264 345 338 287 231 285 308 298 280 133 122 94 17 336 345 346 323 347 3 344 345 17 17 13 19 14 5 20 36 23 14 19 24 64 68 35 344 322 322 316 346 89 84 70 59 58 56 62 90 110 114 113 110 115 124 129 132 142 137 109 77 77 84 104 136 75 33 71 108 100 91
342 337 336 341 327 195 165 154 163 168 151 57 338 304 314 340 330 327 325 281 202 274 306 299 291 159 136 124 106 346 329 330 293 240 301 4 357 351 13 25 36 33 12 352 345 29 34 2 328 23 56 42 357 315 310 321 35 82 90 84 75 71 64 62 97 118 124 129 132 144 147 118 77 90 116 107 87 97 98 107 135 90 64 95 138 153 121
350 -0 4 12 50 148 145 141 162 167 136 48 316 295 317 323 320 314 301 191 182 293 297 290 294 345 99 120 118 161 301 323 325 262 50 21 356 318 324 34 49 22 346 339 340 356 341 293 286 152 98 69 357 306 305 351 59 74 91 101 95 92 88 86 91 104 114 117 96 76 142 105 71 84 126 150 184 138 109 301 161 103 80 79 153 251 68
13 28 57 82 104 130 126 117 123 115 78 51 58 319 322 321 320 303 242 168 221 281 268 272 285 273 147 153 144 113 325 318 330 16 47 38 5 336 339 354 197 208 357 358 331 279 238 253 353 349 167 145 11 315 304 334 52 51 65 126 127 127 119 124 175 164 126 110 93 72 90 102 103 129 150 199 225 190 230 280 263 116 62 246 222 225 246
40 65 91 101 103 113 116 114 116 105 65 66 164 318 316 311 306 255 194 174 294 269 226 237 262 258 234 180 138 102 342 321 340 15 15 9 356 348 344 323 260 176 44 348 305 278 200 53 1 325 167 152 230 269 281 304 356 77 153 186 166 165 174 195 216 203 164 152 157 149 133 166 224 222 206 225 245 248 261 268 262 161 223 261 269 278 287
84 94 100 99 93 92 98 103 98 16 336 213 286 318 328 11 62 118 173 187 311 305 296 279 254 276 319 18 88 69 340 336 7 4 339 320 319 342 338 319 313 37 18 314 283 296 59 43 334 297 213 195 275 303 6 342 346 50 244 262 235 211 214 216 220 210 184 175 187 213 238 249 257 255 242 242 256 261 263 269 273 266 260 277 296 326 342
100 103 103 101 97 92 97 105 67 307 287 222 248 345 82 95 90 89 97 312 300 301 302 305 337 7 345 39 82 41 348 345 331 304 320 351 346 340 329 318 342 28 337 277 244 45 46 34 318 290 265 272 302 335 8 329 323 316 299 299 292 258 245 233 221 208 191 194 212 229 248 259 263 261 258 264 267 262 256 261 268 268 265 270 283 303 307
101 97 92 101 138 157 120 105 303 298 269 164 155 146 136 167 165 133 115 110 242 234 265 289 339 11 340 7 66 21 347 335 322 327 24 22 345 325 329 335 10 11 308 291 61 32 334 293 274 276 267 272 289 292 168 12 341 319 296 289 281 270 258 238 219 206 206 217 221 223 246 264 268 265 262 265 268 266 260 259 261 260 258 265 276 284 282
88 83 57 289 164 68 55 6 305 75 124 142 174 257 251 249 237 162 119 140 220 202 236 335 17 19 358 9 68 45 357 327 318 344 23 28 343 -0 358 348 29 351 298 308 64 36 294 278 269 277 291 357 41 66 86 67 337 310 294 284 282 280 271 255 232 210 214 230 237 230 246 265 285 298 288 276 272 267 247 238 248 252 251 257 263 265 274
14 334 301 33 64 49 34 106 118 106 117 176 270 293 269 259 263 173 170 200 205 135 64 13 29 39 6 330 6 48 14 341 321 333 344 345 54 11 328 318 14 355 301 306 67 47 291 300 307 289 299 82 93 87 53 328 307 310 305 292 286 281 270 261 248 225 221 234 244 245 252 270 297 305 298 289 286 277 245 230 241 244 239 244 252 263 283
226 237 84 84 78 66 94 129 122 97 330 266 180 316 303 315 331 198 198 199 169 105 64 342 339 88 56 329 321 25 36 9 338 311 306 343 45 1 303 303 352 329 289 324 31 340 287 294 296 290 317 59 92 89 26 329 318 317 309 298 292 282 268 261 255 240 229 232 237 243 255 275 293 297 295 289 283 269 237 225 233 233 227 237 253 268 281
169 150 119 112 114 127 148 153 160 303 348 9 327 287 286 147 174 218 214 80 64 90 109 346 335 37 55 344 328 351 36 16 344 302 287 2 48 342 291 302 327 288 290 336 347 309 290 297 285 286 11 42 40 13 350 341 331 321 312 308 305 289 271 262 253 239 231 233 238 245 262 283 295 300 294 270 258 242 218 214 221 227 230 237 245 260 281
124 110 104 113 131 175 212 186 173 144 6 306 241 294 256 222 212 194 124 114 102 110 138 141 318 327 55 358 324 316 30 13 339 304 285 317 354 293 286 299 298 289 308 327 310 288 290 297 288 304 68 79 58 338 341 351 338 321 313 311 306 289 277 268 252 235 227 230 236 247 266 281 289 292 279 257 244 230 212 204 208 217 225 229 240 263 293
103 87 69 90 149 204 249 190 186 214 248 229 207 183 196 207 184 127 113 128 135 137 96 9 336 320 76 42 326 303 134 67 347 312 305 314 321 304 292 290 293 305 311 305 290 289 292 279 290 339 35 58 43 348 349 345 329 319 318 321 314 286 274 270 255 237 225 221 230 248 261 276 290 285 269 258 243 229 221 212 209 215 223 234 249 259 260
111 168 126 110 180 275 253 187 211 217 203 213 227 215 129 116 113 116 127 124 105 103 89 6 342 322 311 315 317 317 5 88 209 228 306 320 312 296 289 287 296 307 300 288 286 293 294 303 -0 27 31 22 5 353 337 325 324 325 325 324 319 298 274 266 259 247 235 231 241 248 248 253 267 266 255 251 242 229 223 218 215 216 221 233 253 262 254
201 223 195 149 271 252 218 194 208 214 199 201 351 42 64 73 71 79 103 134 60 57 48 5 333 313 304 299 273 240 277 299 282 253 259 278 270 280 309 311 305 291 282 287 294 288 289 350 28 35 28 4 353 343 327 322 324 326 322 318 316 307 285 261 252 250 244 240 243 246 243 245 251 253 248 244 238 234 232 229 228 230 232 236 250 263 267
256 244 249 268 253 215 215 217 218 190 142 112 62 58 71 88 83 72 59 26 28 33 6 335 314 295 291 300 295 258 231 240 274 282 271 264 272 293 315 310 300 289 282 284 283 281 308 12 17 357 335 336 337 328 322 321 319 318 317 309 305 308 304 276 253 248 244 240 238 237 235 238 242 243 247 246 242 242 246 242 238 239 241 241 245 252 254
260 241 244 249 220 210 223 226 202 130 90 80 83 87 87 96 106 101 86 39 19 11 345 329 322 305 274 240 276 283 266 232 246 264 269 275 291 298 283 269 269 275 277 276 276 292 335 6 1 333 327 336 335 324 322 321 313 310 310 304 300 304 304 286 266 256 250 249 245 238 234 238 239 233 230 235 240 245 248 247 245 245 244 244 248 250 249
250 252 259 257 248 243 242 238 180 129 112 96 99 139 160 157 104 100 96 39 357 350 337 331 329 321 305 250 250 274 275 255 251 275 271 254 254 254 262 274 276 275 280 298 320 332 340 345 333 314 315 323 321 311 308 308 306 305 304 302 304 305 299 286 277 270 266 262 251 238 239 248 247 236 231 233 235 237 241 241 240 241 240 240 244 248 248
243 253 250 242 247 254 245 234 214 153 153 172 207 206 185 160 84 83 73 326 323 330 314 296 286 303 318 321 302 283 281 283 274 263 254 253 257 254 251 259 269 281 301 322 331 329 324 319 315 311 309 307 300 294 293 301 308 309 301 293 292 294 295 293 289 287 284 274 251 238 247 255 249 244 259 264 252 245 255 253 245 243 243 240 240 245 248
230 247 248 244 254 282 289 251 254 222 160 177 175 101 62 353 64 92 75 315 305 300 288 274 237 233 270 278 261 272 303 312 288 268 264 265 269 267 262 263 277 304 320 325 326 322 313 308 311 316 313 301 291 288 290 295 299 300 297 292 287 284 285 288 286 286 292 286 259 247 255 256 244 243 266 272 259 254 266 266 254 247 247 242 238 241 245
222 238 253 248 245 250 252 255 286 317 313 180 144 105 53 314 320 85 61 297 280 272 278 279 254 244 258 278 279 282 288 285 278 281 290 294 291 293 297 305 319 331 333 330 323 315 306 299 298 301 299 293 288 288 292 294 292 289 292 294 289 278 275 277 275 272 276 274 261 254 257 258 252 255 262 260 253 254 262 262 253 246 245 245 243 242 242
Height
1489 1487 1485 1483 1481 1479 1477 1475 1473 1470 1469 1467 1466 1465 1464 1462 1460 1460 1461 1461 1460 1461 1459 1456 1455 1453 1449 1446 1442 1436 1432 1430 1428 1426 1427 1428 1429 1428 1428 1427 1424 1422 1421 1419 1418 1417 1415 1415 1418 1425 1431 1431 1427 1424 1423 1421 1418 1423 1432 1429 1420 1419 1426 1433 1438 1435 1428 1421 1417 1413 1409 1409 1411 1412 1412 1415 1419 1419 1424 1431 1432 1435 1441 1440 1450 1470 1472
1489 1486 1485 1482 1480 1479 1477 1475 1473 1471 1469 1468 1466 1465 1463 1460 1459 1459 1460 1460 1460 1460 1460 1459 1456 1453 1449 1447 1444 1441 1436 1433 1431 1431 1430 1430 1431 1431 1430 1429 1424 1419 1419 1420 1419 1417 1419 1419 1418 1421 1425 1424 1424 1425 1423 1422 1421 1425 1434 1432 1425 1427 1431 1436 1446 1452 1447 1441 1436 1428 1422 1423 1424 1422 1417 1415 1415 1417 1421 1423 1427 1438 1442 1438 1452 1472 1472
1488 1486 1484 1482 1480 1478 1476 1475 1474 1472 1470 1469 1467 1466 1463 1460 1458 1458 1458 1460 1460 1459 1458 1458 1455 1453 1452 1450 1448 1446 1442 1437 1435 1435 1433 1433 1432 1432 1431 1431 1427 1421 1421 1421 1416 1415 1420 1419 1417 1421 1426 1425 1424 1424 1423 1425 1426 1425 1428 1427 1426 1432 1434 1435 1444 1450 1452 1457 1455 1446 1442 1439 1434 1430 1425 1419 1414 1417 1425 1429 1435 1445 1442 1438 1454 1470 1467
1488 1485 1484 1482 1479 1478 1476 1474 1473 1471 1470 1469 1467 1466 1464 1459 1457 1457 1457 1458 1459 1458 1457 1458 1456 1455 1457 1455 1449 1448 1445 1441 1438 1437 1435 1435 1434 1434 1434 1432 1430 1427 1426 1426 1421 1417 1419 1419 1416 1419 1426 1426 1424 1424 1424 1427 1429 1427 1427 1426 1426 1431 1433 1434 1439 1443 1448 1456 1453 1445 1444 1444 1442 1438 1434 1430 1423 1419 1425 1433 1440 1445 1444 1450 1460 1463 1464
1487 1485 1483 1481 1479 1478 1476 1474 1473 1471 1470 1469 1467 1466 1463 1459 1458 1459 1461 1460 1460 1459 1459 1459 1458 1458 1460 1458 1453 1451 1448 1442 1441 1440 1437 1436 1436 1436 1435 1433 1433 1432 1431 1431 1430 1424 1420 1419 1416 1417 1423 1425 1424 1424 1424 1425 1427 1427 1428 1427 1427 1431 1434 1434 1437 1439 1441 1445 1446 1445 1446 1447 1448 1445 1440 1438 1434 1430 1430 1435 1438 1439 1447 1460 1460 1456 1463
1487 1485 1483 1481 1479 1478 1476 1474 1472 1471 1470 1469 1468 1466 1462 1460 1461 1462 1464 1464 1464 1464 1463 1462 1460 1460 1461 1460 1457 1458 1454 1446 1445 1445 1439 1438 1439 1439 1438 1436 1433 1432 1431 1431 1432 1430 1426 1424 1421 1421 1426 1427 1426 1426 1425 1425 1426 1427 1427 1426 1426 1431 1434 1433 1435 1438 1435 1436 1441 1444 1445 1447 1449 1450 1446 1442 1443 1446 1446 1441 1436 1437 1447 1458 1457 1456 1464
1487 1485 1483 1481 1480 1478 1476 1474 1472 1471 1470 1469 1468 1466 1464 1462 1463 1463 1464 1464 1464 1466 1465 1463 1462 1461 1461 1460 1459 1461 1459 1451 1446 1444 1444 1445 1443 1441 1444 1442 1435 1431 1432 1432 1434 1436 1435 1434 1432 1430 1432 1432 1430 1432 1433 1431 1428 1427 1426 1426 1426 1430 1433 1430 1433 1437 1435 1434 1438 1440 1443 1446 1447 1450 1450 1447 1448 1456 1459 1458 1450 1443 1445 1451 1454 1459 1467
1487 1485 1484 1482 1480 1478 1476 1474 1473 1471 1470 1469 1468 1468 1467 1467 1467 1466 1464 1462 1461 1464 1464 1463 1463 1463 1463 1462 1461 1461 1459 1455 1451 1446 1448 1451 1448 1443 1445 1445 1440 1438 1438 1437 1440 1441 1439 1440 1438 1434 1433 1434 1432 1433 1437 1437 1433 1429 1428 1430 1430 1432 1435 1432 1431 1438 1437 1434 1436 1439 1441 1445 1448 1450 1451 1450 1454 1458 1460 1467 1468 1459 1454 1455 1458 1465 1471
1487 1486 1484 1483 1481 1479 1477 1475 1474 1472 1471 1470 1470 1470 1470 1470 1470 1469 1466 1462 1460 1462 1462 1461 1463 1465 1465 1465 1463 1461 1458 1457 1457 1453 1450 1451 1450 1447 1446 1445 1443 1444 1443 1441 1443 1443 1440 1439 1438 1434 1433 1434 1432 1431 1431 1433 1435 1434 1434 1439 1438 1436 1437 1435 1435 1443 1442 1436 1437 1440 1440 1444 1448 1451 1451 1451 1457 1460 1458 1463 1470 1469 1466 1465 1468 1472 1474
1488 1486 1485 1483 1482 1480 1478 1476 1475 1473 1472 1471 1471 1472 1472 1471 1470 1469 1468 1464 1461 1460 1460 1461 1462 1465 1467 1466 1464 1464 1461 1458 1459 1458 1454 1452 1452 1451 1449 1447 1447 1447 1447 1446 1445 1444 1441 1440 1438 1435 1434 1432 1429 1429 1427 1426 1431 1436 1439 1446 1449 1446 1442 1440 1441 1447 1445 1438 1437 1439 1444 1452 1455 1453 1452 1450 1452 1458 1460 1460 1464 1466 1468 1469 1469 1470 1472
1488 1487 1485 1484 1483 1481 1480 1478 1476 1475 1474 1473 1472 1473 1474 1472 1471 1470 1467 1463 1460 1460 1461 1463 1465 1465 1465 1465 1464 1465 1464 1461 1460 1460 1459 1456 1454 1453 1452 1450 1449 1449 1449 1449 1446 1444 1442 1439 1437 1436 1434 1432 1429 1428 1428 1425 1426 1432 1438 1444 1452 1452 1448 1444 1444 1447 1449 1445 1442 1443 1452 1462 1463 1457 1453 1448 1448 1455 1460 1461 1462 1463 1466 1467 1464 1464 1468
1488 1487 1486 1485 1484 1482 1481 1479 1478 1476 1476 1475 1474 1475 1475 1474 1473 1470 1466 1462 1461 1461 1462 1465 1467 1466 1464 1464 1464 1464 1464 1463 1461 1461 1461 1459 1456 1455 1454 1453 1452 1451 1450 1449 1446 1443 1440 1437 1436 1433 1432 1431 1428 1426 1427 1427 1426 1429 1432 1438 1446 1449 1448 1447 1447 1448 1451 1454 1455 1459 1464 1465 1462 1458 1453 1450 1450 1453 1457 1461 1461 1461 1464 1466 1464 1465 1468
1489 1488 1487 1485 1484 1483 1482 1481 1480 1478 1478 1477 1476 1477 1476 1475 1474 1472 1468 1465 1465 1466 1464 1464 1467 1466 1465 1464 1463 1462 1463 1464 1463 1461 1461 1459 1457 1456 1456 1455 1454 1452 1451 1449 1445 1442 1439 1435 1433 1431 1429 1428 1428 1427 1427 1428 1429 1429 1431 1435 1441 1444 1446 1448 1451 1455 1458 1459 1462 1469 1471 1465 1460 1459 1456 1455 1457 1459 1461 1465 1464 1462 1463 1464 1465 1468 1469
1489 1488 1487 1486 1485 1484 1483 1482 1481 1480 1479 1478 1477 1478 1477 1476 1475 1474 1472 1469 1469 1470 1469 1467 1468 1468 1466 1465 1464 1462 1461 1463 1463 1462 1461 1459 1458 1457 1457 1456 1455 1453 1452 1449 1445 1441 1439 1437 1436 1435 1433 1432 1434 1435 1432 1432 1433 1432 1433 1435 1437 1442 1447 1450 1455 1461 1461 1459 1463 1470 1472 1469 1467 1466 1463 1463 1466 1466 1466 1470 1469 1465 1464 1465 1467 1471 1474
1490 1489 1488 1487 1486 1485 1484 1483 1482 1481 1481 1479 1478 1479 1479 1477 1476 1476 1475 1472 1469 1471 1473 1473 1473 1470 1466 1466 1466 1464 1462 1461 1461 1461 1461 1459 1458 1458 1457 1456 1455 1454 1452 1450 1447 1443 1441 1443 1444 1444 1444 1445 1449 1449 1444 1441 1441 1438 1436 1437 1437 1440 1445 1448 1453 1458 1456 1456 1463 1469 1473 1476 1477 1474 1471 1468 1468 1466 1463 1468 1474 1471 1468 1470 1473 1476 1480
1490 1490 1489 1488 1487 1486 1485 1484 1483 1483 1482 1480 1480 1480 1480 1479 1477 1476 1476 1474 1472 1474 1476 1476 1475 1472 1468 1468 1469 1467 1465 1462 1460 1459 1458 1457 1458 1458 1457 1457 1455 1454 1453 1451 1448 1445 1445 1447 1447 1446 1448 1451 1456 1459 1454 1450 1450 1447 1441 1438 1437 1437 1439 1441 1446 1451 1451 1454 1462 1469 1476 1481 1480 1477 1475 1471 1470 1468 1465 1470 1478 1478 1474 1475 1477 1480 1484
1491 1490 1490 1489 1488 1487 1486 1486 1485 1484 1483 1482 1481 1481 1481 1480 1479 1477 1476 1476 1476 1478 1479 1478 1476 1474 1471 1471 1471 1469 1468 1466 1462 1460 1457 1456 1457 1458 1457 1457 1456 1455 1454 1454 1452 1449 1447 1447 1446 1446 1448 1448 1451 1456 1456 1454 1457 1456 1450 1446 1443 1441 1440 1442 1446 1449 1450 1453 1460 1470 1480 1483 1480 1477 1476 1475 1473 1471 1470 1477 1482 1479 1476 1477 1479 1482 1486
1491 1491 1490 1489 1489 1488 1487 1487 1486 1485 1485 1483 1482 1483 1483 1481 1480 1478 1477 1478 1478 1479 1481 1480 1478 1477 1476 1475 1474 1472 1471 1469 1465 1461 1459 1457 1458 1460 1459 1458 1456 1455 1454 1455 1454 1451 1447 1445 1447 1449 1450 1449 1449 1452 1456 1458 1459 1457 1454 1454 1454 1450 1446 1445 1446 1449 1451 1453 1461 1474 1483 1483 1481 1479 1477 1475 1474 1474 1477 1482 1482 1477 1476 1480 1482 1485 1487
1492 1492 1491 1490 1490 1489 1488 1488 1487 1486 1486 1485 1483 1484 1484 1483 1481 1479 1478 1479 1480 1481 1482 1482 1480 1480 1479 1478 1477 1475 1474 1473 1470 1465 1463 1462 1462 1461 1459 1458 1458 1456 1454 1452 1451 1450 1447 1443 1444 1446 1449 1451 1451 1452 1455 1457 1456 1454 1453 1453 1456 1457 1454 1450 1451 1455 1454 1453 1460 1475 1485 1485 1482 1479 1476 1473 1474 1479 1483 1483 1480 1477 1479 1482 1484 1488 1490
1492 1492 1492 1491 1490 1490 1489 1489 1488 1488 1487 1486 1485 1485 1485 1485 1483 1481 1481 1482 1481 1482 1484 1484 1482 1482 1482 1481 1480 1478 1477 1476 1474 1471 1469 1468 1466 1461 1459 1461 1462 1459 1458 1457 1454 1452 1450 1446 1444 1446 1448 1450 1452 1452 1452 1451 1451 1454 1456 1455 1457 1460 1460 1460 1464 1465 1459 1457 1466 1479 1488 1487 1481 1478 1477 1476 1477 1482 1484 1483 1482 1482 1483 1485 1488 1491 1493
1493 1492 1492 1492 1491 1491 1490 1489 1489 1489 1488 1488 1487 1487 1487 1486 1485 1484 1483 1483 1482 1483 1485 1485 1484 1484 1484 1483 1483 1482 1480 1479 1479 1477 1475 1473 1469 1465 1465 1467 1466 1463 1464 1465 1460 1454 1452 1451 1449 1448 1446 1447 1450 1451 1450 1450 1452 1455 1457 1457 1460 1463 1463 1466 1471 1469 1465 1470 1481 1487 1488 1486 1482 1481 1482 1483 1483 1484 1485 1485 1486 1488 1488 1489 1492 1494 1496
1493 1493 1493 1492 1492 1491 1491 1490 1490 1489 1489 1489 1488 1488 1488 1488 1487 1486 1484 1484 1485 1485 1486 1486 1485 1485 1485 1485 1484 1484 1483 1482 1481 1480 1478 1475 1471 1469 1470 1470 1470 1469 1469 1469 1465 1459 1457 1456 1455 1452 1450 1452 1455 1454 1453 1453 1455 1456 1458 1460 1464 1467 1467 1468 1472 1473 1473 1478 1485 1487 1486 1486 1485 1485 1486 1486 1487 1487 1487 1488 1489 1491 1492 1493 1495 1497 1499
1493 1493 1493 1493 1492 1492 1491 1491 1491 1490 1490 1490 1489 1488 1489 1489 1488 1486 1485 1486 1487 1486 1486 1486 1486 1486 1486 1486 1485 1485 1484 1483 1482 1481 1480 1478 1474 1472 1474 1474 1473 1473 1472 1471 1471 1468 1464 1462 1461 1459 1458 1460 1461 1459 1456 1453 1456 1459 1461 1462 1466 1468 1468 1468 1472 1476 1479 1482 1485 1486 1487 1488 1488 1489 1490 1490 1490 1491 1491 1491 1493 1494 1495 1496 1498 1499 1500
1493 1493 1493 1493 1492 1492 1492 1491 1491 1491 1490 1490 1490 1489 1489 1490 1489 1487 1486 1487 1487 1486 1485 1486 1487 1487 1487 1487 1486 1486 1485 1484 1484 1482 1481 1480 1477 1475 1476 1477 1476 1475 1474 1474 1474 1471 1469 1467 1464 1461 1463 1466 1464 1462 1460 1460 1462 1464 1463 1462 1465 1469 1468 1469 1474 1477 1480 1484 1487 1488 1489 1491 1491 1491 1493 1493 1493 1494 1495 1495 1497 1498 1499 1500 1501 1502 1503
1493 1493 1493 1492 1492 1492 1492 1492 1491 1491 1491 1490 1490 1490 1490 1490 1489 1488 1488 1488 1488 1486 1484 1485 1487 1488 1488 1488 1487 1487 1486 1485 1485 1484 1483 1482 1481 1479 1479 1479 1478 1477 1476 1476 1475 1472 1470 1469 1465 1462 1466 1470 1468 1464 1464 1466 1467 1466 1466 1468 1470 1471 1470 1471 1475 1478 1480 1484 1487 1489 1490 1492 1492 1493 1494 1495 1496 1498 1498 1498 1499 1500 1502 1503 1504 1505 1506
1492 1492 1492 1492 1492 1492 1492 1492 1491 1491 1491 1491 1491 1490 1491 1491 1490 1489 1489 1489 1488 1485 1482 1483 1487 1488 1488 1488 1488 1487 1487 1486 1485 1485 1484 1483 1482 1482 1481 1480 1479 1478 1478 1477 1476 1474 1471 1469 1468 1467 1469 1473 1472 1469 1468 1469 1467 1464 1468 1473 1474 1473 1472 1472 1475 1481 1485 1486 1488 1490 1491 1493 1493 1494 1496 1497 1498 1499 1500 1501 1501 1502 1503 1504 1505 1507 1508
1492 1492 1491 1491 1491 1491 1491 1491 1491 1491 1491 1491 1491 1491 1492 1492 1491 1490 1489 1489 1488 1486 1482 1482 1486 1488 1488 1489 1488 1488 1488 1487 1486 1486 1485 1484 1484 1483 1482 1481 1480 1479 1479 1477 1476 1475 1473 1471 1472 1473 1474 1476 1475 1472 1471 1472 1469 1467 1470 1475 1475 1476 1478 1477 1477 1482 1487 1488 1489 1490 1491 1493 1495 1496 1497 1498 1499 1500 1500 1501 1502 1503 1504 1505 1506 1507 1508
1491 1491 1491 1491 1491 1491 1491 1491 1491 1491 1491 1491 1491 1491 1492 1493 1492 1491 1490 1490 1490 1489 1487 1485 1486 1488 1488 1489 1489 1488 1488 1488 1487 1487 1486 1485 1485 1484 1483 1483 1481 1480 1480 1478 1476 1475 1475 1476 1477 1477 1478 1479 1478 1474 1472 1472 1472 1472 1474 1478 1479 1481 1482 1482 1482 1484 1487 1489 1490 1490 1490 1493 1496 1496 1497 1498 1499 1499 1500 1501 1503 1504 1505 1506 1506 1507 1508
1490 1490 1490 1490 1490 1490 1491 1491 1491 1491 1491 1492 1492 1491 1492 1493 1493 1491 1491 1491 1490 1490 1489 1487 1485 1487 1488 1489 1489 1489 1489 1488 1488 1487 1487 1486 1486 1485 1484 1484 1483 1482 1481 1480 1478 1477 1478 1480 1482 1481 1481 1482 1481 1477 1472 1470 1472 1476 1478 1479 1481 1484 1485 1485 1486 1487 1488 1490 1491 1491 1492 1494 1496 1497 1498 1499 1499 1500 1501 1502 1503 1504 1505 1506 1507 1508 1508
1490 1489 1489 1489 1489 1490 1490 1490 1491 1491 1492 1492 1492 1491 1491 1492 1492 1491 1491 1491 1490 1491 1490 1487 1486 1487 1488 1489 1490 1490 1490 1489 1489 1488 1487 1487 1486 1486 1485 1485 1484 1484 1482 1481 1481 1480 1480 1481 1482 1483 1483 1484 1483 1480 1475 1471 1473 1478 1480 1480 1482 1484 1485 1486 1487 1488 1490 1491 1492 1492 1494 1496 1497 1498 1499 1500 1500 1501 1501 1502 1503 1504 1505 1506 1507 1508 1508
1489 1489 1489 1489 1489 1489 1490 1490 1491 1491 1492 1492 1492 1492 1491 1491 1491 1492 1492 1491 1491 1491 1491 1488 1486 1486 1488 1490 1490 1490 1490 1489 1489 1489 1488 1487 1486 1486 1486 1486 1485 1485 1484 1482 1482 1482 1482 1483 1483 1483 1484 1484 1483 1482 1479 1474 1474 1478 1481 1482 1484 1485 1487 1488 1489 1490 1491 1492 1493 1493 1495 1497 1497 1498 1499 1500 1501 1501 1502 1503 1503 1504 1504 1506 1507 1507 1508
1489 1489 1489 1488 1489 1489 1489 1490 1491 1491 1491 1491 1492 1492 1492 1491 1492 1492 1492 1492 1492 1492 1492 1489 1486 1484 1486 1488 1490 1491 1490 1489 1489 1488 1488 1487 1487 1486 1486 1487 1487 1486 1486 1485 1484 1483 1484 1485 1484 1484 1485 1485 1485 1483 1481 1477 1478 1481 1484 1484 1486 1488 1489 1490 1490 1490 1492 1493 1493 1493 1495 1496 1497 1497 1499 1501 1501 1502 1502 1503 1503 1504 1505 1506 1506 1507 1507
1488 1488 1489 1488 1488 1489 1490 1490 1491 1491 1492 1492 1492 1492 1492 1492 1492 1492 1492 1492 1492 1492 1492 1490 1486 1485 1486 1488 1490 1490 1490 1489 1488 1487 1488 1488 1487 1486 1486 1487 1487 1487 1487 1486 1485 1484 1485 1485 1484 1484 1485 1486 1485 1484 1482 1480 1481 1484 1485 1485 1488 1490 1491 1492 1492 1492 1493 1494 1494 1494 1495 1496 1498 1499 1500 1501 1501 1502 1502 1503 1503 1503 1505 1505 1506 1507 1507
1488 1488 1489 1489 1489 1489 1490 1491 1491 1492 1492 1492 1492 1492 1492 1492 1492 1492 1492 1492 1492 1492 1492 1490 1488 1486 1486 1487 1489 1489 1490 1489 1487 1487 1487 1488 1488 1487 1486 1486 1486 1486 1486 1486 1486 1484 1483 1483 1483 1484 1485 1485 1486 1486 1484 1481 1481 1484 1485 1486 1489 1491 1492 1493 1494 1493 1494 1495 1496 1496 1497 1498 1498 1499 1500 1501 1501 1501 1502 1503 1503 1503 1504 1505 1505 1505 1505
1489 1489 1489 1489 1490 1490 1491 1491 1492 1492 1492 1493 1493 1493 1492 1492 1492 1492 1492 1492 1492 1491 1490 1489 1488 1486 1483 1484 1486 1489 1490 1489 1487 1487 1488 1489 1488 1488 1487 1485 1484 1485 1486 1487 1485 1482 1481 1484 1485 1484 1483 1484 1485 1485 1484 1482 1482 1484 1486 1487 1488 1490 1492 1493 1494 1494 1495 1496 1497 1497 1498 1498 1498 1499 1499 1500 1501 1501 1501 1502 1502 1503 1504 1504 1504 1504 1504
1489 1489 1490 1490 1491 1491 1492 1492 1492 1492 1493 1493 1493 1493 1493 1492 1492 1492 1492 1493 1493 1491 1489 1487 1486 1485 1483 1484 1487 1490 1490 1489 1489 1489 1489 1488 1488 1488 1488 1486 1484 1485 1486 1487 1484 1481 1482 1486 1486 1484 1483 1483 1482 1482 1483 1483 1483 1485 1487 1487 1488 1490 1491 1492 1493 1494 1495 1496 1497 1498 1498 1498 1498 1498 1498 1499 1500 1500 1501 1502 1502 1502 1503 1504 1503 1503 1503
1490 1490 1491 1491 1491 1492 1492 1493 1493 1493 1493 1493 1493 1494 1493 1492 1492 1493 1493 1493 1493 1492 1491 1489 1487 1486 1485 1486 1489 1491 1491 1490 1490 1489 1489 1488 1489 1489 1488 1486 1486 1486 1486 1485 1483 1483 1484 1487 1487 1485 1484 1483 1481 1481 1484 1485 1486 1487 1488 1488 1489 1490 1490 1491 1492 1494 1495 1497 1497 1498 1498 1498 1497 1497 1498 1499 1499 1499 1500 1501 1502 1502 1503 1503 1503 1503 1504
1491 1491 1491 1491 1491 1492 1493 1494 1494 1493 1494 1494 1494 1494 1493 1493 1492 1492 1493 1493 1493 1493 1492 1490 1489 1487 1487 1487 1490 1492 1491 1491 1490 1489 1489 1490 1490 1489 1488 1487 1488 1488 1486 1483 1483 1484 1485 1485 1486 1484 1482 1480 1481 1482 1485 1486 1488 1489 1490 1490 1490 1490 1491 1491 1492 1493 1495 1496 1496 1497 1498 1497 1497 1497 1497 1498 1498 1498 1499 1500 1501 1502 1502 1502 1503 1503 1504
1492 1492 1491 1491 1492 1492 1492 1494 1494 1494 1494 1495 1494 1494 1493 1493 1492 1492 1493 1493 1492 1491 1491 1491 1491 1490 1490 1490 1492 1493 1492 1492 1491 1491 1491 1492 1492 1490 1489 1488 1488 1488 1487 1485 1485 1487 1485 1483 1482 1482 1480 1480 1482 1484 1485 1487 1489 1490 1490 1490 1490 1490 1491 1491 1492 1493 1494 1495 1495 1496 1497 1497 1497 1496 1497 1497 1497 1497 1498 1500 1501 1501 1501 1502 1502 1503 1503
1492 1492 1491 1492 1493 1493 1493 1494 1495 1495 1495 1495 1495 1494 1493 1492 1491 1491 1492 1492 1491 1491 1492 1493 1493 1493 1494 1493 1492 1493 1493 1493 1493 1493 1493 1493 1492 1492 1492 1489 1488 1489 1489 1487 1486 1487 1486 1484 1483 1482 1481 1482 1485 1487 1487 1488 1489 1490 1490 1491 1491 1491 1491 1491 1491 1492 1493 1494 1495 1496 1496 1497 1497 1497 1497 1497 1496 1496 1497 1499 1499 1500 1500 1501 1501 1502 1502
1491 1492 1492 1493 1494 1495 1495 1495 1496 1495 1495 1495 1495 1495 1494 1493 1492 1491 1490 1490 1490 1491 1493 1494 1493 1493 1494 1494 1493 1493 1494 1495 1494 1494 1493 1492 1492 1494 1493 1490 1489 1491 1491 1488 1486 1486 1486 1485 1485 1484 1482 1483 1485 1488 1489 1489 1490 1490 1491 1491 1491 1492 1492 1491 1491 1492 1493 1494 1495 1495 1496 1496 1497 1497 1496 1497 1497 1496 1497 1498 1498 1499 1500 1500 1501 1501 1501
1491 1492 1493 1493 1495 1496 1496 1495 1496 1496 1496 1496 1496 1495 1493 1493 1492 1491 1490 1490 1492 1493 1494 1495 1494 1494 1494 1495 1494 1494 1495 1496 1495 1494 1493 1493 1494 1495 1493 1491 1492 1493 1491 1488 1486 1486 1486 1486 1486 1485 1483 1485 1487 1488 1489 1490 1490 1491 1491 1491 1492 1492 1492 1491 1491 1491 1493 1494 1495 1495 1495 1496 1496 1496 1496 1496 1496 1496 1496 1497 1498 1498 1499 1500 1500 1500 1501
1492 1493 1494 1494 1495 1496 1496 1495 1496 1496 1496 1496 1497 1497 1495 1493 1491 1490 1490 1492 1493 1494 1494 1495 1495 1495 1495 1496 1496 1495 1496 1497 1496 1495 1493 1493 1494 1494 1493 1493 1494 1493 1491 1488 1487 1488 1488 1488 1487 1485 1484 1487 1489 1490 1490 1491 1492 1491 1491 1491 1492 1492 1492 1491 1491 1492 1493 1494 1494 1495 1495 1496 1496 1496 1496 1496 1495 1495 1496 1497 1497 1498 1499 1499 1499 1500 1500
1494 1495 1495 1495 1495 1496 1496 1496 1496 1497 1497 1496 1495 1495 1494 1492 1489 1489 1490 1492 1493 1494 1495 1495 1495 1495 1495 1496 1496 1495 1495 1497 1497 1496 1495 1494 1494 1494 1496 1496 1494 1492 1490 1489 1489 1488 1487 1486 1485 1485 1486 1488 1489 1490 1491 1492 1492 1492 1492 1491 1492 1492 1492 1492 1492 1492 1493 1494 1494 1495 1495 1495 1495 1496 1496 1495 1495 1495 1496 1496 1497 1497 1498 1498 1498 1498 1498
1495 1495 1496 1496 1496 1496 1497 1497 1496 1495 1495 1493 1490 1488 1488 1488 1488 1490 1492 1493 1494 1495 1496 1496 1496 1495 1495 1495 1496 1496 1495 1496 1497 1497 1496 1496 1497 1497 1496 1495 1493 1493 1492 1492 1490 1489 1487 1485 1485 1487 1488 1489 1490 1491 1492 1492 1492 1492 1492 1492 1492 1492 1492 1492 1492 1493 1493 1493 1494 1494 1495 1495 1495 1495 1495 1495 1495 1495 1496 1496 1496 1497 1497 1497 1497 1497 1497
1495 1495 1495 1496 1496 1496 1495 1495 1494 1491 1488 1487 1486 1486 1487 1488 1489 1491 1493 1493 1494 1495 1496 1497 1497 1497 1496 1495 1495 1496 1496 1496 1496 1495 1496 1498 1499 1497 1495 1495 1495 1495 1495 1495 1493 1490 1488 1487 1487 1489 1490 1490 1491 1492 1492 1492 1492 1493 1493 1493 1492 1492 1492 1492 1492 1492 1493 1493 1493 1494 1494 1494 1494 1494 1495 1495 1495 1495 1495 1495 1496 1496 1496 1497 1497 1497 1497
1495 1495 1494 1495 1495 1494 1492 1491 1490 1488 1486 1486 1487 1488 1489 1490 1491 1493 1495 1495 1495 1496 1497 1497 1497 1497 1496 1496 1495 1495 1496 1496 1497 1496 1495 1497 1497 1496 1495 1498 1499 1498 1498 1498 1496 1491 1488 1488 1490 1491 1491 1491 1492 1492 1492 1493 1493 1493 1493 1493 1492 1491 1491 1491 1491 1492 1492 1492 1493 1493 1493 1494 1494 1494 1494 1494 1494 1494 1495 1495 1495 1495 1495 1496 1496 1496 1496
1495 1495 1494 1494 1493 1491 1489 1487 1486 1486 1487 1488 1489 1490 1491 1492 1493 1495 1496 1497 1497 1498 1498 1498 1498 1497 1496 1496 1496 1495 1494 1495 1496 1496 1495 1496 1497 1498 1500 1501 1501 1498 1496 1495 1492 1489 1488 1491 1493 1493 1492 1492 1493 1492 1492 1493 1493 1492 1492 1492 1491 1490 1490 1490 1490 1490 1490 1491 1492 1492 1492 1492 1493 1493 1493 1493 1493 1494 1494 1494 1494 1494 1494 1495 1495 1495 1495
1496 1495 1494 1493 1491 1488 1486 1485 1485 1487 1489 1490 1491 1492 1493 1493 1494 1495 1497 1498 1498 1499 1499 1499 1499 1498 1496 1495 1496 1495 1494 1495 1496 1495 1495 1497 1499 1500 1501 1502 1501 1497 1494 1492 1491 1490 1491 1493 1494 1493 1493 1493 1493 1492 1492 1492 1492 1491 1491 1491 1490 1490 1489 1489 1488 1488 1489 1489 1490 1490 1490 1491 1491 1491 1491 1491 1491 1492 1492 1492 1492 1493 1493 1493 1494 1494 1494
1496 1494 1493 1492 1489 1487 1486 1486 1487 1488 1490 1491 1491 1492 1493 1493 1495 1497 1498 1498 1499 1499 1499 1499 1499 1499 1497 1496 1497 1496 1495 1495 1495 1495 1496 1497 1497 1497 1499 1501 1499 1495 1492 1491 1492 1493 1493 1493 1493 1493 1493 1492 1492 1492 1491 1491 1490 1490 1490 1490 1489 1489 1489 1488 1487 1487 1487 1488 1488 1488 1489 1489 1489 1489 1489 1489 1490 1490 1491 1491 1491 1491 1492 1492 1493 1493 1493
1495 1494 1492 1490 1489 1488 1487 1487 1487 1488 1489 1491 1492 1493 1494 1495 1496 1497 1498 1499 1499 1499 1498 1498 1498 1499 1499 1499 1499 1499 1498 1496 1495 1495 1495 1494 1493 1494 1496 1496 1494 1491 1490 1492 1493 1493 1493 1493 1492 1492 1492 1491 1491 1490 1490 1490 1489 1489 1489 1488 1487 1487 1487 1487 1486 1486 1486 1486 1486 1487 1487 1487 1488 1488 1489 1489 1489 1490 1490 1490 1490 1490 1491 1491 1491 1492 1492
1493 1492 1491 1490 1489 1489 1489 1489 1489 1489 1490 1491 1493 1494 1495 1496 1496 1497 1498 1499 1499 1498 1497 1497 1497 1497 1498 1498 1499 1498 1498 1497 1497 1496 1495 1493 1492 1492 1492 1492 1491 1491 1492 1492 1492 1493 1493 1492 1491 1491 1491 1490 1489 1489 1488 1488 1487 1487 1487 1486 1485 1485 1485 1485 1485 1485 1485 1485 1485 1485 1486 1486 1486 1487 1488 1488 1488 1488 1488 1489 1489 1489 1489 1489 1490 1490 1490